Theta_e
328 326 326 322 307 305 301 302 307 306 307 310 309 309 308 309 306 304 323 330 332 336 342 348 350 351 352 351 350 350 350 349 349 349 347 346 345 344 344 345 347 346 343 341 339 337 337 336 334
323 322 322 314 303 298 299 305 304 307 309 310 310 309 308 307 313 316 322 330 332 335 341 345 348 351 351 351 350 350 350 349 348 347 345 343 341 340 340 339 340 341 340 339 337 335 333 331 328
323 320 313 307 303 298 299 305 306 308 310 309 309 312 311 309 315 318 327 331 333 334 340 343 346 351 351 351 350 349 349 350 349 347 345 342 339 337 337 337 337 338 337 336 331 328 328 325 325
319 317 312 302 300 303 303 306 308 308 310 310 310 307 313 316 316 321 327 332 332 334 339 343 346 350 351 351 350 349 348 350 350 348 343 341 338 336 334 335 336 335 335 331 327 325 324 323 321
318 312 303 301 301 303 306 307 308 307 308 309 309 307 309 315 318 320 328 331 332 334 336 341 345 348 350 350 350 350 349 350 350 347 344 342 340 336 334 333 334 334 331 327 324 323 321 320 319
310 310 301 299 301 304 307 309 308 308 309 309 307 308 310 316 316 319 326 330 333 333 336 337 338 342 346 348 348 348 348 349 348 346 344 341 339 336 333 331 333 330 327 323 323 322 320 319 317
308 305 301 301 301 302 305 309 307 307 307 308 311 305 311 313 316 319 324 329 333 334 336 338 340 341 337 342 344 345 347 347 344 342 339 339 337 334 331 330 330 327 324 324 323 321 319 317 315
311 307 301 302 300 301 306 307 309 307 306 311 311 305 307 315 316 320 324 327 331 334 335 336 338 340 342 344 335 337 340 339 338 336 334 333 332 331 330 328 328 325 324 324 321 319 317 315 312
312 302 300 301 301 302 307 304 309 310 307 309 310 310 313 314 316 319 321 324 327 331 334 336 336 337 338 340 338 332 333 333 332 332 329 327 331 329 326 324 326 325 324 322 320 317 315 312 308
307 302 302 306 306 304 305 305 306 306 306 307 309 312 314 312 314 315 317 319 323 326 331 334 335 336 336 335 339 340 339 337 337 335 334 331 331 329 324 320 323 326 323 320 318 315 311 307 306
307 301 305 306 307 306 305 304 307 304 303 306 306 309 312 313 313 313 314 317 319 324 327 331 333 335 334 335 335 336 335 334 336 335 333 330 330 327 322 322 321 322 316 315 314 309 304 305 305
302 305 306 307 307 305 304 306 304 305 305 309 310 311 311 311 311 311 312 314 316 319 324 327 330 332 333 334 333 333 332 334 335 334 331 330 328 324 321 320 321 322 317 316 313 308 307 304 303
303 304 305 306 306 306 306 304 304 304 308 310 310 310 310 310 310 312 313 314 316 316 320 325 328 328 330 332 332 331 331 332 332 331 327 329 325 322 319 319 319 319 316 313 309 306 304 304 302
304 303 303 304 304 304 302 303 304 305 308 308 308 308 309 309 310 311 312 312 313 315 318 321 325 327 327 329 331 330 330 330 330 329 329 328 324 321 318 317 317 316 314 311 306 304 303 303 303
303 298 301 302 303 303 303 299 300 306 307 306 306 307 308 309 310 310 311 311 313 314 316 319 321 324 325 327 328 329 329 328 329 328 329 326 323 319 316 315 315 314 312 308 305 303 303 302 301
298 300 294 302 301 301 301 295 303 306 304 304 304 306 307 308 309 311 311 311 312 313 314 316 317 320 323 324 326 327 327 327 327 327 326 324 321 318 315 312 312 312 307 304 302 301 300 301 299
299 293 296 298 303 300 298 296 302 305 303 303 304 305 306 307 308 310 311 311 312 312 312 313 315 317 319 322 323 324 325 324 324 324 323 322 319 316 313 310 310 309 304 302 301 300 300 299 299
295 296 297 296 300 300 298 297 301 304 304 303 304 305 305 306 307 308 309 309 310 311 311 311 312 312 315 317 320 321 322 322 322 321 320 319 317 314 311 309 308 306 302 300 300 300 300 300 299
297 295 294 297 300 298 297 297 299 302 302 303 304 305 305 305 307 307 307 308 308 308 308 308 309 310 310 312 314 315 316 318 318 319 319 318 315 313 310 307 306 304 301 300 300 299 298 298 299
295 293 293 297 300 298 296 295 298 300 302 303 304 304 304 304 304 304 303 304 303 303 304 305 306 307 307 310 312 313 313 315 315 316 316 315 314 311 308 306 304 303 300 300 299 298 296 297 297
295 294 294 293 296 297 295 293 297 302 305 303 302 303 303 301 300 300 299 299 300 300 301 302 303 305 305 306 308 309 310 308 308 310 312 312 312 310 308 305 304 302 300 299 299 298 297 294 295
291 297 295 293 291 287 294 285 295 300 301 298 299 299 299 299 298 298 297 296 297 299 301 301 301 302 302 304 304 304 304 302 304 306 308 309 309 308 307 305 304 302 300 299 299 298 297 297 293
292 295 293 292 290 290 291 288 294 300 296 296 297 297 297 296 296 295 295 295 296 297 298 299 299 299 300 302 302 302 301 303 304 305 306 306 306 306 305 305 303 301 300 299 298 297 296 297 296
296 293 293 294 291 286 292 292 292 294 294 294 295 295 295 295 295 295 295 295 295 296 297 297 296 296 298 298 299 300 300 300 300 301 302 302 303 302 302 303 302 301 300 298 298 297 296 296 296
292 290 287 286 286 286 291 291 293 297 295 296 294 294 294 295 294 293 293 294 294 294 294 294 294 293 295 296 296 297 297 298 298 299 300 300 300 300 299 300 300 299 299 299 298 297 296 295 295
292 292 287 280 282 286 292 286 293 296 295 296 295 294 294 293 293 292 292 292 292 293 293 293 293 291 292 293 293 295 295 296 297 297 298 298 298 299 300 299 299 298 298 297 297 296 296 295 295
292 288 294 287 286 283 287 292 298 294 293 294 294 293 292 291 291 291 291 291 291 291 291 291 291 291 291 291 292 292 293 293 293 294 296 296 297 297 298 299 298 297 296 296 296 295 294 294 294
290 292 286 286 278 278 284 287 289 291 291 292 291 290 290 290 290 290 290 290 290 290 291 291 290 289 289 290 290 291 291 292 292 293 293 293 294 295 295 295 296 297 296 295 294 293 293 293 293
289 286 287 287 286 280 279 284 295 291 293 291 289 288 288 289 289 289 289 289 289 289 289 289 289 288 287 288 289 289 289 290 290 290 290 291 292 292 292 293 293 294 294 294 294 293 293 291 291
294 290 290 283 282 284 283 284 298 291 291 289 287 287 287 287 286 287 287 287 287 287 286 286 287 286 286 287 287 287 287 288 288 288 288 288 288 289 290 291 290 291 292 292 292 291 291 291 290
Wind_Speed
8 6 5 5 7 4 5 3 4 3 2 4 3 7 10 9 8 5 4 6 3 14 15 17 13 14 13 13 12 12 11 12 11 11 11 9 8 8 8 7 9 9 8 8 8 6 6 6 6
4 5 5 5 6 6 7 4 0 5 6 4 4 6 7 7 2 1 5 9 7 13 14 16 12 15 14 13 12 11 10 11 9 10 10 9 6 4 4 5 5 6 7 7 7 6 5 5 5
7 5 5 4 4 6 6 2 3 3 4 4 4 2 7 3 1 3 5 10 11 14 13 14 13 15 15 14 13 11 10 10 12 11 11 10 6 4 3 2 3 4 6 7 6 5 5 5 5
4 5 5 6 6 6 4 7 7 7 3 3 3 8 4 3 2 5 2 9 10 13 14 15 16 12 15 15 14 13 12 12 12 12 11 9 5 4 3 1 2 3 5 5 5 4 5 5 4
5 4 5 5 7 4 4 6 5 7 3 2 3 3 4 5 4 3 5 8 10 12 12 13 14 14 12 15 15 14 13 13 14 13 11 9 8 7 5 4 4 5 5 4 5 5 5 5 5
4 4 6 7 4 4 3 2 4 6 3 2 5 9 5 7 6 6 6 10 10 11 12 11 12 11 12 13 15 14 13 14 12 14 11 9 9 6 7 6 6 6 5 5 6 5 5 5 5
6 5 9 8 10 7 2 1 5 3 5 7 2 6 2 7 5 5 7 8 10 12 12 12 13 13 9 12 12 13 13 13 13 10 11 7 7 7 7 7 7 6 6 7 7 6 6 6 6
5 4 6 5 6 9 3 3 3 6 8 4 2 6 5 9 6 4 5 8 10 12 13 13 13 14 14 12 9 11 12 12 12 10 10 9 8 7 6 5 6 8 8 7 7 7 6 6 6
3 6 8 10 7 4 4 6 6 3 11 9 7 12 9 4 4 5 6 8 10 11 13 14 14 14 14 14 12 8 7 6 8 9 9 10 6 9 10 9 9 9 9 9 8 7 7 7 6
7 9 10 7 9 9 10 9 12 11 13 16 15 17 13 7 8 10 11 11 14 15 14 14 14 15 13 11 13 13 9 9 10 10 10 7 10 8 9 9 8 8 8 9 8 7 6 5 4
6 10 13 12 12 14 13 14 15 13 18 17 16 9 11 9 12 14 14 15 14 15 12 15 15 15 14 11 8 6 6 5 7 11 10 8 8 6 5 5 6 7 8 6 7 6 6 3 2
11 14 15 16 9 7 14 17 13 14 23 20 21 20 18 16 16 15 15 14 14 14 15 16 17 15 15 9 9 9 9 9 9 9 12 9 6 7 7 6 7 7 6 7 6 3 3 3 2
15 15 16 14 14 14 17 21 20 21 22 24 22 19 18 16 18 15 14 13 13 15 15 16 16 16 13 14 9 10 9 9 9 9 10 9 9 8 8 8 7 7 7 6 5 4 5 4 3
11 11 17 20 19 15 17 20 16 25 16 19 16 16 16 16 17 13 12 13 14 14 15 16 16 16 16 14 15 10 9 10 10 9 11 14 9 8 8 7 7 7 7 6 6 6 5 4 4
9 13 16 22 20 13 5 16 15 19 13 15 16 17 16 13 13 12 12 12 12 12 13 14 15 15 16 16 14 11 9 10 9 9 13 13 12 11 10 8 8 7 6 7 6 6 5 4 4
10 15 15 12 2 3 8 16 16 9 10 13 18 21 20 21 20 16 16 13 11 10 11 13 11 14 16 15 12 9 9 9 9 9 9 13 13 12 10 8 8 8 7 7 6 6 6 5 5
14 16 19 15 12 2 11 12 12 20 20 22 26 23 20 20 18 13 12 12 9 8 9 11 11 13 13 13 10 11 11 9 8 8 8 12 13 13 10 8 9 10 8 8 8 8 8 7 6
18 20 20 14 13 15 18 22 19 20 23 24 23 20 17 15 11 13 12 10 8 7 5 6 6 9 10 9 8 7 8 8 8 8 8 11 10 12 10 8 9 9 8 8 8 8 7 7 7
22 22 24 21 20 23 24 24 20 19 25 24 19 13 6 9 13 17 17 17 16 15 11 7 4 5 5 7 7 8 9 8 8 8 10 10 10 12 11 8 10 10 9 9 10 7 9 6 6
18 22 23 21 18 16 19 23 25 23 21 15 12 10 3 11 17 17 18 18 19 18 17 15 10 4 3 5 5 6 6 7 7 7 8 10 11 12 11 11 10 11 8 11 11 10 7 5 8
20 18 21 24 18 18 18 19 10 10 17 5 10 13 16 17 16 16 17 19 18 19 18 16 15 11 6 3 3 3 4 2 5 6 6 7 10 11 12 13 10 11 10 9 10 11 13 8 8
18 16 14 15 12 9 7 10 16 18 13 15 19 15 14 15 16 16 16 19 20 17 16 17 15 13 10 8 4 4 5 5 6 5 4 5 8 10 12 13 13 13 10 12 12 11 11 9 8
13 6 10 10 12 16 13 10 6 13 5 15 15 14 14 14 15 16 16 15 16 16 15 15 15 16 15 11 8 4 4 5 6 5 1 5 6 9 11 12 13 12 10 13 14 14 15 11 10
8 10 14 16 8 9 11 12 5 5 11 9 14 13 12 12 14 14 13 14 15 14 13 15 15 15 17 15 12 10 7 6 5 6 3 3 4 5 10 12 12 12 12 12 12 13 15 14 12
7 9 7 5 7 7 5 8 8 8 8 10 11 10 10 11 12 13 14 13 13 13 12 11 14 16 16 14 14 14 12 9 7 7 4 5 5 5 7 10 11 11 13 12 11 12 13 15 13
7 4 4 6 10 15 14 9 7 11 12 12 10 10 10 10 9 9 10 8 10 11 11 10 12 15 15 14 14 13 13 8 8 9 7 6 5 5 6 7 10 12 13 13 12 10 11 12 13
4 6 5 2 3 6 10 17 15 14 11 11 9 8 8 7 7 8 8 9 9 10 12 13 14 14 14 14 11 12 11 12 10 10 9 7 8 7 8 7 7 10 12 13 13 11 12 13 13
3 4 3 5 6 12 14 18 14 14 13 9 8 6 7 7 9 10 10 11 11 12 11 11 12 13 12 12 10 9 11 12 11 9 10 10 9 10 9 9 9 9 10 12 13 12 12 13 11
6 6 5 6 8 11 15 13 9 10 8 5 5 7 8 9 9 9 8 9 9 9 9 9 10 11 10 11 11 11 10 11 11 11 11 11 10 10 9 10 10 10 10 11 13 14 14 15 15
16 18 17 13 13 10 15 18 8 14 6 4 3 4 3 4 6 8 9 9 10 11 12 13 12 12 12 12 10 10 10 9 9 10 11 11 13 12 11 9 9 10 10 11 13 14 13 16 16
Wind_Direction
253 267 285 258 258 226 271 86 341 323 286 34 315 304 338 313 312 8 136 178 210 165 160 171 175 171 170 169 169 169 176 166 159 147 132 131 139 131 117 105 116 118 109 102 92 87 75 70 62
291 286 241 283 259 268 74 68 59 28 8 327 291 264 267 300 3 128 189 173 178 163 169 179 171 172 172 171 167 171 176 171 167 157 150 153 138 139 138 125 126 121 112 99 95 92 88 78 61
263 268 267 275 289 340 357 71 9 328 316 271 284 244 310 314 88 17 67 159 170 167 176 180 165 177 175 174 171 177 182 183 173 169 162 148 147 176 159 145 146 121 107 107 107 105 96 81 68
257 197 212 257 299 323 287 322 341 307 124 218 299 272 182 322 351 45 79 159 177 169 177 147 164 186 181 178 179 184 191 193 184 183 172 155 165 170 190 166 181 143 116 122 115 115 95 77 61
231 243 261 251 284 282 293 287 306 283 292 215 210 272 270 139 124 144 149 169 184 177 184 161 170 186 189 187 184 187 194 199 196 174 183 146 156 193 212 216 200 174 148 139 129 109 104 95 79
236 289 249 271 334 310 301 11 267 264 276 171 241 267 281 110 167 175 177 186 194 187 187 192 178 189 190 188 191 193 200 204 186 174 141 160 162 177 212 214 174 171 167 159 140 130 114 99 83
283 268 281 296 288 288 257 128 234 303 276 262 267 273 291 176 163 160 190 196 196 194 188 196 186 195 190 193 197 197 201 196 177 177 141 171 159 179 209 220 188 185 179 160 142 134 122 106 89
281 269 272 247 287 287 164 205 287 275 297 39 302 258 267 92 131 174 195 203 201 201 193 198 197 193 199 198 184 183 184 179 177 164 160 159 157 169 193 185 194 189 178 159 149 139 132 124 115
276 255 263 273 266 279 142 266 145 313 280 253 231 276 344 81 157 190 202 211 209 211 205 203 203 201 202 203 189 192 189 190 165 155 151 149 199 198 196 200 176 192 168 164 157 151 139 121 99
232 247 275 281 286 279 298 270 290 285 270 268 257 242 247 215 232 231 221 221 212 212 209 211 207 207 208 205 199 199 197 205 205 197 186 182 212 211 206 179 170 172 156 164 164 144 138 202 166
220 251 275 292 284 294 285 286 278 260 271 270 280 289 291 264 238 248 250 240 232 218 209 210 210 209 209 212 200 203 207 209 215 204 193 184 210 199 195 172 179 170 160 176 171 163 202 187 191
265 252 269 286 298 287 272 288 277 266 266 284 288 292 292 285 259 253 256 255 247 239 217 207 213 209 209 211 198 203 201 205 212 197 196 193 196 192 191 193 186 187 174 189 177 180 160 170 142
247 272 278 283 280 269 280 270 274 271 277 281 283 283 274 262 265 265 256 250 248 242 227 215 204 210 209 207 206 211 207 204 209 196 193 199 194 195 193 193 184 181 177 180 181 179 176 165 151
315 293 282 278 273 264 267 274 283 273 271 280 281 281 272 265 265 263 251 250 234 236 230 221 211 209 208 208 211 204 210 201 209 202 195 199 198 192 194 192 192 187 181 180 182 177 174 172 161
281 291 293 281 268 255 257 270 242 267 266 275 288 284 289 277 266 259 259 265 248 233 228 223 216 210 215 211 212 215 208 209 201 203 202 195 207 197 193 191 190 192 177 176 177 174 172 170 172
269 269 275 286 73 153 197 276 293 341 322 287 281 286 287 285 285 273 286 265 256 249 237 225 212 212 213 217 211 212 216 206 213 203 202 202 204 205 195 191 190 186 175 180 181 176 178 184 181
245 270 279 295 303 43 213 282 294 312 296 287 281 287 292 293 295 301 313 309 296 263 250 235 230 219 221 224 223 217 217 218 213 212 206 205 203 209 197 198 189 181 181 189 184 179 184 180 180
282 290 299 284 285 277 272 275 293 295 294 279 280 290 292 294 334 5 357 357 350 336 319 282 238 228 222 227 224 227 222 220 221 220 216 208 203 206 208 200 191 181 186 188 189 186 191 182 173
280 287 285 288 293 290 288 294 297 286 279 283 287 305 306 50 52 51 39 32 33 34 29 6 295 225 223 217 222 219 223 214 221 223 220 216 205 206 210 207 194 181 192 194 188 181 179 185 158
280 280 283 284 292 306 298 291 291 285 275 283 295 313 65 97 68 55 39 34 29 24 25 24 13 340 229 245 238 242 237 233 230 226 228 215 207 202 206 209 204 191 192 194 191 185 173 179 177
266 276 287 297 312 299 291 285 254 277 298 31 37 82 77 64 63 50 37 33 32 27 23 29 24 20 4 320 285 264 284 288 268 233 236 223 223 207 206 208 208 194 193 197 194 189 184 182 192
283 299 314 307 311 295 21 292 297 273 265 80 93 70 71 68 61 50 41 35 28 24 19 30 33 40 37 13 337 325 283 275 269 256 234 224 223 228 223 215 212 204 198 199 192 191 196 191 190
282 340 312 298 278 284 269 251 289 286 181 114 91 74 63 58 53 55 46 44 39 28 25 26 32 35 36 34 13 345 324 307 313 307 202 212 223 222 237 227 229 222 211 204 192 192 197 201 192
317 285 274 261 269 260 276 252 280 49 105 113 96 81 63 49 49 49 49 46 39 32 33 28 30 36 33 29 22 8 349 333 315 311 306 274 242 229 235 235 230 229 227 219 211 202 199 202 207
222 271 307 279 208 269 60 331 267 347 81 116 109 90 73 66 52 41 35 34 36 37 34 32 25 36 35 29 26 15 360 352 338 328 300 277 268 237 240 239 233 231 230 226 223 217 210 207 207
192 257 218 279 289 296 321 260 250 126 116 110 111 98 82 63 54 47 40 34 38 30 33 34 40 39 32 22 22 23 16 3 348 343 324 306 299 274 252 240 237 233 236 233 226 222 219 217 217
155 221 279 211 217 266 248 267 263 140 142 135 118 95 70 63 52 51 55 46 44 39 36 30 33 33 29 23 19 18 11 13 7 354 342 334 320 314 306 283 250 244 242 239 230 226 226 221 216
247 1 199 164 255 258 260 278 270 206 176 153 120 72 38 28 32 32 31 33 31 34 27 32 34 34 27 25 17 2 9 7 2 0 0 348 334 321 311 299 278 262 246 244 239 234 225 226 224
227 246 226 291 246 260 271 268 308 66 113 127 56 32 20 15 15 17 18 26 32 28 23 25 27 30 23 19 17 16 14 2 355 354 353 352 342 335 317 307 294 276 256 251 246 239 236 229 226
274 269 267 254 248 226 251 249 288 26 88 53 9 4 27 26 23 20 15 11 19 18 15 14 13 18 17 10 5 8 5 1 359 353 348 344 340 338 332 313 290 283 270 257 254 245 241 238 233